THOR ABLESTAR DEB, 643

Orbit data source: Space-Track

THOR ABLESTAR DEB, 643 is space debris in LEO originally from a launch on Thu, 29 Jun 1961 UTC launched from the Air Force Eastern Test Range (AFETR). Debris objects in space refer to the collection of defunct objects orbiting the Earth. Examples of debris include non-operational satellites, rocket bodies, and fragments generated from explosions, collisions, or faulty payload assembly.

Loading next visibility...
Identifier
643, 1961-015GU
Orbit
LEO
Country
Flag of USUS
Related business
Manufacturer
Unknown
Mission
Spacecraft
Bus & Motor
Unknown
Mass
Unknown
Launch date (UTC)
1961-06-29 (64 years ago)
Launch vehicle
Unknown
Launch site
Air Force Eastern Test Range (AFETR)
Object type
Payload
Rocket body
Debris
Shape & HBR
Unknown shape, 0.1 m
Radar Cross Section
Small (<0.1 m²)

Expand to show TLE details & history
Last TLE update: 2 days ago

TLE from 2 days ago
0 THOR ABLESTAR DEB
1 00643U 61015GU  25306.12049520  .00001219  00000-0  18407-2 0  9990
2 00643  66.3674 212.4241 0329130 166.7792 194.2149 13.36179424 79656
Epoch: 2025-11-02T02:53Z
TLE epoch observation values (Epoch: 2025-11-02T02:53:30.785Z)
Latitude
-0.00002°
Longitude
127.40504°
Altitude
1,365.374 km
Speed
7.061 km/s
True Right ascension
14h 09m 41s
True Declination
0° 00' 00"
Sunlit
Object was in daylight at epoch
Visualization orbit readout
Latitude
Unknown
Longitude
Unknown
Altitude
Unknown
Speed
Unknown
Apparent Right ascension
Unknown
Apparent Declination
Unknown
Sunlit
N/A
Visualization observer readout
Local Sidereal Time
23:24:02
Azimuth
Unknown
Elevation
Unknown
Doppler factor
Unknown
Orbital elements
Apogee altitude
1,368.88 km
Perigee altitude
875.174 km
Semi-major axis
7,500.164 km
Eccentricity
0.03291
Inclination
66.3674°
RAAN
212.4241°
Arg. of periapsis
166.7792°
True anomaly
193.32437°
Mean anomaly
194.2149°
Eccentric anomaly
193.76616°
Mean motion
3.34147 °/min
Orbital period
107.74 mins
BSTAR
0.0018407

Documentation

Showing up to 5 results
|